Weather History for Wink, TX

Change the Weather History Date:

Wednesday, March 26, 2014

  Actual Average Record
Temperature  
Mean Temperature 66 °F -  
Max Temperature 82 °F 73 °F 93 °F (2008)
Min Temperature 50 °F 43 °F 21 °F (1955)
Growing Degree Days 16 (Base 50)    
Moisture  
Dew Point 38 °F    
Average Humidity 53    
Maximum Humidity 86    
Minimum Humidity 9    
Precipitation  
Precipitation 0.01 in - - ()
Sea Level Pressure  
Sea Level Pressure 29.76 in    
Wind  
Wind Speed 15 mph (South)    
Max Wind Speed 25 mph    
Max Gust Speed 33 mph    
Visibility 10 miles    
Events Rain    
Averages and records for this station are not official NWS values.
T = Trace of Precipitation, MM = Missing Value Source: NWS Daily Summary

Daily Weather History Graph

Daily Weather History Graph

Search for Another Location

Airport:

Trip Planner

Search our weather history database for the weather conditions in past years. The results will help you decide how hot, cold, wet, or windy it might be!

Date:

Astronomy

Mar. 26, 2014 Rise Set
Actual Time 7:48 AM CDT 8:08 PM CDT
Civil Twilight 7:24 AM CDT 8:32 PM CDT
Nautical Twilight 6:55 AM CDT 9:01 PM CDT
Astronomical Twilight 6:27 AM CDT 9:30 PM CDT
Moon 4:43 AM CDT (3/26) 4:03 PM CDT (3/26)
Length of Visible Light 13h 08m
Length of Day
12h 19m
Waning Crescent, 21% of the Moon is Illuminated
Mar 26
Waning Crescent
Mar 30
New
Apr 7
First Quarter
Apr 15
Full
Apr 22
Last Quarter

Hourly Weather History & Observations

Time (CDT) Temp. Dew Point Humidity Pressure Visibility Wind Dir Wind Speed Gust Speed Precip Events Conditions
12:53 AM 53.1 °F 45.0 °F 74% 29.94 in 10.0 mi ESE 16.1 mph - 0.01 in Rain Light Rain
1:53 AM 53.1 °F 43.0 °F 69% 29.89 in 10.0 mi SE 12.7 mph - 0.00 in   Mostly Cloudy
2:53 AM 53.1 °F 44.1 °F 71% 29.89 in 10.0 mi SSE 15.0 mph - 0.00 in Rain Light Rain
3:53 AM 53.1 °F 45.0 °F 74% 29.82 in 10.0 mi SE 18.4 mph 29.9 mph 0.00 in Rain Light Rain
4:53 AM 52.0 °F 45.0 °F 77% 29.80 in 10.0 mi SSE 17.3 mph 24.2 mph 0.00 in   Clear
5:53 AM 51.1 °F 44.1 °F 77% 29.80 in 10.0 mi SSE 16.1 mph - N/A   Clear
6:53 AM 51.1 °F 44.1 °F 77% 29.80 in 10.0 mi SSE 12.7 mph - N/A   Clear
7:53 AM 50.0 °F 45.0 °F 83% 29.85 in 10.0 mi Calm Calm - N/A   Clear
8:53 AM 52.0 °F 45.0 °F 77% 29.86 in 10.0 mi East 4.6 mph - N/A   Clear
9:53 AM 54.0 °F 44.1 °F 69% 29.85 in 10.0 mi SE 13.8 mph - N/A   Clear
10:53 AM 57.9 °F 45.0 °F 62% 29.85 in 10.0 mi SSE 12.7 mph - N/A   Clear
11:53 AM 64.0 °F 46.9 °F 54% 29.83 in 10.0 mi South 11.5 mph - N/A   Clear
12:53 PM 66.9 °F 45.0 °F 45% 29.80 in 10.0 mi SW 8.1 mph - N/A   Clear
1:53 PM 73.0 °F 39.9 °F 30% 29.76 in 10.0 mi WSW 18.4 mph - N/A   Clear
2:53 PM 77.0 °F 33.1 °F 20% 29.70 in 10.0 mi SW 17.3 mph 26.5 mph N/A   Clear
3:53 PM 81.0 °F 28.0 °F 14% 29.65 in 10.0 mi SW 19.6 mph 28.8 mph N/A   Clear
4:53 PM 81.0 °F 21.9 °F 11% 29.62 in 10.0 mi WSW 25.3 mph 31.1 mph N/A   Clear
5:53 PM 81.0 °F 18.0 °F 10% 29.61 in 10.0 mi WSW 21.9 mph 28.8 mph N/A   Clear
6:53 PM 80.1 °F 15.1 °F 9% 29.59 in 10.0 mi WSW 20.7 mph 33.4 mph N/A   Clear
7:53 PM 77.0 °F 12.9 °F 9% 29.62 in 10.0 mi SW 15.0 mph - N/A   Clear
8:53 PM 68.0 °F 18.0 °F 15% 29.63 in 10.0 mi South 9.2 mph - N/A   Clear
9:53 PM 60.1 °F 50.0 °F 69% 29.67 in 10.0 mi SE 20.7 mph - N/A   Clear
10:53 PM 57.0 °F 51.1 °F 81% 29.67 in 10.0 mi SE 19.6 mph 24.2 mph N/A   Clear
11:53 PM 55.0 °F 51.1 °F 86% 29.67 in 10.0 mi SE 16.1 mph - N/A   Clear